Weather History for Sacramento / Mc Clellan, CA

Change the Weather History Date:

Wednesday, June 5, 2013

  Actual Average (KMHR) Record (KMHR)
Temperature  
Mean Temperature 70 °F -  
Max Temperature 86 °F 83 °F 100 °F (2002)
Min Temperature 53 °F 53 °F 44 °F (2012)
Cooling Degree Days 4    
Growing Degree Days 20 (Base 50)    
Moisture  
Dew Point 51 °F    
Average Humidity 58    
Maximum Humidity 88    
Minimum Humidity 35    
Precipitation  
Precipitation 0.00 in - - ()
Sea Level Pressure  
Sea Level Pressure 29.91 in    
Wind  
Wind Speed 11 mph (SSE)    
Max Wind Speed 15 mph    
Max Gust Speed 21 mph    
Visibility 10 miles    
Events      
Averages and records for this station are not official NWS values.
T = Trace of Precipitation, MM = Missing Value Source: NWS Daily Summary

Daily Weather History Graph

Daily Weather History Graph

Search for Another Location

Airport:

Trip Planner

Search our weather history database for the weather conditions in past years. The results will help you decide how hot, cold, wet, or windy it might be!

Date:

Astronomy

Jun. 05, 2013 Rise Set
Actual Time 5:41 AM PDT 8:27 PM PDT
Civil Twilight 5:09 AM PDT 8:58 PM PDT
Nautical Twilight 4:30 AM PDT 9:38 PM PDT
Astronomical Twilight 3:45 AM PDT 10:23 PM PDT
Moon 3:47 AM PDT (6/5) 5:59 PM PDT (6/5)
Length of Visible Light 15h 48m
Length of Day
14h 45m
Waning Crescent, 7% of the Moon is Illuminated
Jun 5
Waning Crescent
Jun 8
New
Jun 16
First Quarter
Jun 23
Full
Jun 29
Last Quarter

Hourly Weather History & Observations

Time (PDT) Temp. Heat Index Dew Point Humidity Pressure Visibility Wind Dir Wind Speed Gust Speed Precip Events Conditions
12:15 AM 59.0 °F - 48.2 °F 67% 29.89 in 10.0 mi SSE 13.8 mph - N/A   Clear
12:35 AM 57.2 °F - 48.2 °F 72% 29.90 in 10.0 mi SSE 13.8 mph - N/A   Clear
12:55 AM 57.2 °F - 48.2 °F 72% 29.90 in 10.0 mi SSE 13.8 mph 19.6 mph N/A   Clear
1:15 AM 57.2 °F - 48.2 °F 72% 29.90 in 10.0 mi SE 12.7 mph - N/A   Clear
1:35 AM 57.2 °F - 48.2 °F 72% 29.90 in 10.0 mi SE 15.0 mph 18.4 mph N/A   Clear
1:55 AM 55.4 °F - 48.2 °F 77% 29.91 in 10.0 mi SE 13.8 mph 18.4 mph N/A   Clear
2:15 AM 55.4 °F - 48.2 °F 77% 29.91 in 10.0 mi SE 15.0 mph - N/A   Clear
2:35 AM 55.4 °F - 48.2 °F 77% 29.91 in 10.0 mi SE 15.0 mph 20.7 mph N/A   Unknown
2:55 AM 55.4 °F - 48.2 °F 77% 29.91 in 10.0 mi SSE 15.0 mph - N/A   Unknown
3:15 AM 55.4 °F - 48.2 °F 77% 29.92 in 10.0 mi SE 12.7 mph 19.6 mph N/A   Clear
3:35 AM 55.4 °F - 48.2 °F 77% 29.92 in 10.0 mi SE 12.7 mph - N/A   Clear
3:55 AM 55.4 °F - 48.2 °F 77% 29.93 in 10.0 mi SE 12.7 mph - N/A   Clear
4:15 AM 55.4 °F - 48.2 °F 77% 29.93 in 10.0 mi SE 12.7 mph 19.6 mph N/A   Clear
4:35 AM 55.4 °F - 48.2 °F 77% 29.93 in 10.0 mi SE 12.7 mph - N/A   Clear
4:55 AM 53.6 °F - 48.2 °F 82% 29.93 in 10.0 mi SE 10.4 mph - N/A   Clear
5:15 AM 53.6 °F - 48.2 °F 82% 29.94 in 10.0 mi SE 11.5 mph - N/A   Clear
5:35 AM 53.6 °F - 48.2 °F 82% 29.94 in 10.0 mi SE 10.4 mph - N/A   Clear
5:55 AM 53.6 °F - 50.0 °F 88% 29.95 in 9.0 mi SE 11.5 mph - N/A   Clear
6:15 AM 53.6 °F - 50.0 °F 88% 29.95 in 9.0 mi SE 9.2 mph - N/A   Clear
6:35 AM 55.4 °F - 50.0 °F 82% 29.96 in 9.0 mi SE 9.2 mph - N/A   Clear
6:55 AM 55.4 °F - 50.0 °F 82% 29.96 in 9.0 mi SE 12.7 mph - N/A   Clear
7:15 AM 55.4 °F - 50.0 °F 82% 29.96 in 10.0 mi SE 11.5 mph - N/A   Clear
7:35 AM 57.2 °F - 50.0 °F 77% 29.96 in 9.0 mi SE 11.5 mph - N/A   Clear
7:55 AM 59.0 °F - 50.0 °F 72% 29.97 in 9.0 mi SSE 10.4 mph - N/A   Clear
8:15 AM 59.0 °F - 50.0 °F 72% 29.97 in 10.0 mi SE 9.2 mph - N/A   Clear
8:35 AM 60.8 °F - 50.0 °F 68% 29.98 in 9.0 mi SSE 9.2 mph - N/A   Clear
8:55 AM 62.6 °F - 50.0 °F 63% 29.98 in 10.0 mi SSE 8.1 mph - N/A   Clear
9:15 AM 64.4 °F - 50.0 °F 59% 29.98 in 10.0 mi South 9.2 mph - N/A   Clear
9:35 AM 64.4 °F - 50.0 °F 59% 29.98 in 10.0 mi SSW 4.6 mph - N/A   Clear
9:55 AM 64.4 °F - 50.0 °F 59% 29.97 in 9.0 mi South 6.9 mph - N/A   Clear
10:15 AM 66.2 °F - 50.0 °F 56% 29.97 in 10.0 mi SSE 6.9 mph - N/A   Clear
10:35 AM 68.0 °F - 50.0 °F 52% 29.97 in 10.0 mi South 5.8 mph - N/A   Clear
10:55 AM 68.0 °F - 51.8 °F 56% 29.96 in 10.0 mi SE 5.8 mph - N/A   Clear
11:15 AM 71.6 °F - 51.8 °F 50% 29.96 in 10.0 mi South 5.8 mph - N/A   Clear
11:35 AM 71.6 °F - 51.8 °F 50% 29.96 in 10.0 mi SSW 5.8 mph - N/A   Clear
11:55 AM 73.4 °F - 51.8 °F 47% 29.95 in 10.0 mi SSW 4.6 mph - N/A   Clear
12:15 PM 73.4 °F - 51.8 °F 47% 29.95 in 10.0 mi SSE 4.6 mph - N/A   Clear
12:35 PM 75.2 °F - 53.6 °F 47% 29.94 in 9.0 mi SW 4.6 mph - N/A   Clear
12:55 PM 77.0 °F - 53.6 °F 44% 29.93 in 10.0 mi SSE 4.6 mph - N/A   Clear
1:15 PM 77.0 °F - 53.6 °F 44% 29.92 in 10.0 mi SSE 4.6 mph - N/A   Clear
1:35 PM 80.6 °F 80.3 °F 53.6 °F 39% 29.91 in 9.0 mi WSW 4.6 mph - N/A   Clear
1:55 PM 80.6 °F 80.3 °F 53.6 °F 39% 29.90 in 10.0 mi Calm Calm - N/A   Clear
2:15 PM 82.4 °F 81.4 °F 53.6 °F 37% 29.90 in 10.0 mi WSW 3.5 mph - N/A   Clear
2:35 PM 82.4 °F 81.4 °F 53.6 °F 37% 29.89 in 10.0 mi SSW 5.8 mph - N/A   Clear
2:55 PM 84.2 °F 83.0 °F 55.4 °F 37% 29.88 in 10.0 mi WSW 5.8 mph - N/A   Clear
3:15 PM 84.2 °F 83.0 °F 55.4 °F 37% 29.88 in 10.0 mi SSW 5.8 mph - N/A   Clear
3:35 PM 84.2 °F 83.0 °F 55.4 °F 37% 29.87 in 10.0 mi SSE 6.9 mph - N/A   Clear
3:55 PM 84.2 °F 83.0 °F 55.4 °F 37% 29.86 in 10.0 mi SW 4.6 mph - N/A   Clear
4:15 PM 86.0 °F 84.5 °F 55.4 °F 35% 29.85 in 10.0 mi WSW 3.5 mph - N/A   Clear
4:35 PM 86.0 °F 84.5 °F 55.4 °F 35% 29.85 in 10.0 mi South 3.5 mph - N/A   Clear
4:55 PM 86.0 °F 84.5 °F 55.4 °F 35% 29.84 in 10.0 mi WSW 4.6 mph - N/A   Clear
5:15 PM 86.0 °F 84.5 °F 55.4 °F 35% 29.84 in 9.0 mi SSW 10.4 mph - N/A   Clear
5:35 PM 86.0 °F 84.5 °F 55.4 °F 35% 29.84 in 10.0 mi SSW 10.4 mph - N/A   Clear
5:55 PM 86.0 °F 84.5 °F 55.4 °F 35% 29.83 in 9.0 mi SW 11.5 mph - N/A   Clear
6:15 PM 82.4 °F 81.7 °F 55.4 °F 39% 29.84 in 10.0 mi South 15.0 mph - N/A   Clear
6:35 PM 82.4 °F 81.4 °F 53.6 °F 37% 29.84 in 10.0 mi South 13.8 mph - N/A   Clear
6:55 PM 80.6 °F 80.3 °F 53.6 °F 39% 29.84 in 10.0 mi South 15.0 mph - N/A   Clear
7:15 PM 80.6 °F 80.3 °F 53.6 °F 39% 29.84 in 10.0 mi South 11.5 mph - N/A   Clear
7:35 PM 78.8 °F - 53.6 °F 42% 29.84 in 10.0 mi South 12.7 mph - N/A   Clear
7:55 PM 77.0 °F - 53.6 °F 44% 29.84 in 10.0 mi SSE 10.4 mph - N/A   Clear
8:15 PM 73.4 °F - 53.6 °F 50% 29.85 in 10.0 mi South 12.7 mph 16.1 mph N/A   Clear
8:35 PM 71.6 °F - 53.6 °F 53% 29.85 in 10.0 mi South 12.7 mph 16.1 mph N/A   Clear
8:55 PM 69.8 °F - 51.8 °F 53% 29.85 in 10.0 mi South 13.8 mph - N/A   Clear
9:15 PM 68.0 °F - 51.8 °F 56% 29.86 in 10.0 mi South 11.5 mph - N/A   Clear
9:35 PM 66.2 °F - 51.8 °F 60% 29.86 in 10.0 mi SSE 11.5 mph - N/A   Clear
9:55 PM 64.4 °F - 51.8 °F 64% 29.87 in 10.0 mi SSE 13.8 mph - N/A   Clear
10:15 PM 64.4 °F - 51.8 °F 64% 29.88 in 10.0 mi SSE 13.8 mph 17.3 mph N/A   Clear
10:35 PM 64.4 °F - 50.0 °F 59% 29.88 in 10.0 mi SSE 13.8 mph 17.3 mph N/A   Clear
10:55 PM 64.4 °F - 50.0 °F 59% 29.89 in 10.0 mi SSE 11.5 mph - N/A   Clear
11:15 PM 62.6 °F - 51.8 °F 68% 29.89 in 10.0 mi SE 10.4 mph - N/A   Clear
11:35 PM 62.6 °F - 51.8 °F 68% 29.89 in 10.0 mi SE 13.8 mph 17.3 mph N/A   Clear
11:55 PM 62.6 °F - 50.0 °F 63% 29.89 in 10.0 mi SE 12.7 mph - N/A   Clear